User: anonymous
Location: Unspecified
(0.0000°N, 0.0000°E)
Time: 18:07:57
(UTC+02:00)
Language:

Cosmos 1263 Rocket - Orbit

View from above orbital plane
View from above orbital plane
View from above satellite
View from above satellite

Ground track
Ground track

The orbit data is extracted from the following two-line orbital elements,

1 12389U 81033B   14263.81890066  .00066545  00000-0  88819-3 0   907
2 12389 082.8749 015.0728 0191662 129.4714 350.9502 15.39120307724401
Epoch (UTC): 20 September 2014 19:39:13
Eccentricity: 0.0191662
inclination: 82.8749°
perigee height: 318 km
apogee height: 579 km
right ascension of ascending node: 15.0728°
argument of perigee: 129.4714°
revolutions per day: 15.39120307
mean anomaly at epoch: 350.9502°
orbit number at epoch: 72440

The dashed part of the orbit path shows where the satellite is in the earth's shadow,  

DLR